Total_Precipitation_Accumulation
0.00 0.00 0.00 0.00 0.00 0.00 0.00 0.00 0.00 0.00 0.00 0.00 0.00 0.00 0.00 0.00 0.00 0.01 0.01 0.01 0.01 0.01 0.01 0.01 0.00 0.00 0.03
0.00 0.00 0.00 0.00 0.00 0.00 0.00 0.00 0.00 0.00 0.00 0.00 0.00 0.00 0.00 0.00 0.00 0.00 0.01 0.00 0.00 0.00 0.00 0.00 0.00 0.00 0.00
0.00 0.00 0.00 0.00 0.00 0.00 0.00 0.00 0.00 0.00 0.00 0.00 0.00 0.00 0.00 0.00 0.00 0.00 0.00 0.00 0.00 0.01 0.01 0.00 0.01 0.01 0.00
0.00 0.00 0.00 0.00 0.00 0.00 0.00 0.00 0.00 0.00 0.00 0.00 0.00 0.00 0.00 0.00 0.00 0.00 0.00 0.00 0.00 0.01 0.01 0.01 0.01 0.01 0.00
0.00 0.00 0.00 0.00 0.01 0.01 0.01 0.01 0.00 0.01 0.00 0.00 0.00 0.00 0.00 0.00 0.00 0.00 0.00 0.00 0.00 0.00 0.01 0.01 0.01 0.01 0.01
0.01 0.02 0.01 0.02 0.02 0.02 0.03 0.02 0.02 0.00 0.00 0.00 0.00 0.00 0.00 0.00 0.00 0.00 0.00 0.00 0.01 0.01 0.01 0.01 0.02 0.01 0.01
0.04 0.03 0.04 0.02 0.04 0.02 0.02 0.02 0.01 0.01 0.02 0.01 0.00 0.00 0.00 0.00 0.00 0.00 0.00 0.01 0.01 0.01 0.01 0.02 0.02 0.02 0.03
0.07 0.04 0.04 0.02 0.05 0.04 0.03 0.02 0.02 0.01 0.02 0.06 0.01 0.00 0.00 0.00 0.00 0.00 0.00 0.01 0.00 0.02 0.02 0.03 0.04 0.05 0.05
0.03 0.04 0.04 0.05 0.08 0.08 0.06 0.10 0.08 0.02 0.01 0.03 0.01 0.00 0.00 0.00 0.00 0.00 0.00 0.01 0.02 0.02 0.05 0.08 0.10 0.09 0.08
0.01 0.02 0.04 0.04 0.05 0.09 0.08 0.11 0.14 0.12 0.01 0.03 0.02 0.03 0.08 0.01 0.00 0.01 0.02 0.04 0.06 0.06 0.08 0.10 0.15 0.17 0.14
0.04 0.03 0.02 0.02 0.02 0.05 0.07 0.09 0.10 0.08 0.05 0.16 0.12 0.06 0.19 0.12 0.02 0.02 0.02 0.06 0.08 0.07 0.11 0.17 0.22 0.25 0.13
0.02 0.01 0.02 0.02 0.01 0.01 0.01 0.02 0.05 0.08 0.10 0.22 0.29 0.16 0.27 0.23 0.10 0.03 0.05 0.07 0.11 0.10 0.10 0.16 0.31 0.35 0.28
0.02 0.01 0.01 0.01 0.01 0.02 0.02 0.03 0.03 0.05 0.07 0.12 0.18 0.23 0.33 0.30 0.19 0.09 0.11 0.08 0.07 0.15 0.16 0.19 0.28 0.40 0.35
0.01 0.01 0.01 0.01 0.01 0.02 0.02 0.03 0.04 0.02 0.03 0.08 0.10 0.14 0.16 0.12 0.18 0.14 0.12 0.19 0.07 0.07 0.12 0.17 0.30 0.37 0.39
0.01 0.01 0.00 0.01 0.01 0.02 0.02 0.03 0.06 0.03 0.05 0.09 0.12 0.17 0.19 0.15 0.15 0.08 0.11 0.14 0.09 0.09 0.08 0.07 0.15 0.29 0.31
0.02 0.02 0.02 0.01 0.01 0.01 0.02 0.03 0.04 0.02 0.04 0.08 0.16 0.15 0.11 0.06 0.05 0.05 0.11 0.15 0.11 0.11 0.12 0.11 0.05 0.11 0.23
0.08 0.04 0.02 0.01 0.03 0.02 0.02 0.04 0.04 0.02 0.02 0.05 0.12 0.14 0.13 0.06 0.03 0.06 0.12 0.11 0.14 0.11 0.10 0.10 0.05 0.06 0.10